NETSAT-1 (46506 NORAD) Tracking and Keplerian Element Data

This shows tracking and keplerian element data for the satellite.

Feedback or suggestion? Click here.




ElementValue
Catalog46506
NameNETSAT-1
Epoch Orbit476
Epoch Day304.72880512
Epoch Year2020
RAAN237.8417
Inclination97.6638
Eccentricity0.0011892
Argument of Perigee141.6206
Mean Anonmoly218.5854
Mean Motion15.01759534
Decay Rate-5.6E-07
L11 46506U 20068W 20304.72880512 -.00000056 00000-0 32602-6 0 9990
L22 46506 97.6638 237.8417 0011892 141.6206 218.5854 15.01759534 4765

Live tracking and technical data element details for NETSAT-1 (NORAD 46506). NETSAT-1 can be tracked NOW for your location showing map with azimuth and elevation plus other details from your city location.

Track the satellite on the map from your city or location and see movement details for azimuth, elevation, latitude, longitude, range, height, and movement on the map or in text.







IsCatalogInMostPopularTable: catalog: 46506, numindb: 6
Update: records affected: 1



GetName: 46506 NETSAT-1

Hit Count: updated at: Sat, 31 Oct 2020 09:45:10 GMT